STARLINK-2672 (48650 NORAD) Tracking and Keplerian Element Data

This shows tracking and keplerian element data for the satellite.

Feedback or suggestion? Click here.




ElementValue
Catalog48650
NameSTARLINK-2672
Epoch Orbit1044
Epoch Day214.38890109
Epoch Year2021
RAAN104.7862
Inclination53.0525
Eccentricity0.000217
Argument of Perigee98.7844
Mean Anonmoly261.339
Mean Motion15.06391042
Decay Rate-1.061E-05
L11 48650U 21044N 21214.38890109 -.00001061 00000-0 -52341-4 0 9991
L22 48650 53.0525 104.7862 0002170 98.7844 261.3390 15.06391042 10447

Live tracking and technical data element details for STARLINK-2672 (NORAD 48650). STARLINK-2672 can be tracked NOW for your location showing map with azimuth and elevation plus other details from your city location.

Track the satellite on the map from your city or location and see movement details for azimuth, elevation, latitude, longitude, range, height, and movement on the map or in text.







IsCatalogInMostPopularTable: catalog: 48650, numindb: 11
Update: records affected: 1



GetName: 48650 STARLINK-2672

Hit Count: updated at: Tue, 03 Aug 2021 23:50:53 GMT